Tracking 18823 objects as of 23-October-2017
HD Live streaming from Space Station
objects crossing your sky now

TEAMSAT

Track TEAMSAT now!
10-day predictions
TEAMSAT is classified as:


NORAD ID: 25025
Int'l Code: 1997-066C
Perigee: 560.9 km
Apogee: 26,609.2 km
Inclination: 7.8 °
Period: 467.6 minutes
Semi major axis: 19956 km
RCS: 0.5073 m2 (medium)
Launch date: October 30, 1997
Source: European Space Agency (ESA)
Launch site: FRENCH GUIANA (FRGUI)
aabbcc
Your satellite tracking list
Your tracking list is empty





NASA's NSSDC Master Catalog

Two Line Element Set (TLE):
1 25025U 97066C   17295.29829003 -.00000107 +00000-0 +46669-4 0  9993
2 25025 007.8279 330.3806 6526396 226.9221 076.9743 03.07957607037834
Source of the keplerian elements: AFSPC